Regional Weather Roundup
Issued by NWS

Home | Current Version | Previous Version | Graphics & Text | Print | Product List | Glossary On
Versions: 1 2 3 4 5 6 7 8 9 10 11 12 13 14 15 16 17 18 19 20 21 22 23 24 25 26 27 28 29 30 31 32 33 34 35 36 37 38 39 40 41 42 43 44 45 46 47 48 49 50
000
ASUS44 KMEG 281600
RWRTN
TENNESSEE HOURLY STATE WEATHER ROUNDUP
NATIONAL WEATHER SERVICE MEMPHIS TN
1100 AM CDT THU MAY 28 2015

TNZ002-004-019-021-049-052-054-088>092-281700-
WEST TENNESSEE

CITY           SKY/WX    TMP DP  RH WIND       PRES   REMARKS
MEMPHIS INTL   CLOUDY    77  65  66 SE6       30.16R
NWS MEMPHIS      N/A     75 N/A N/A MISG        N/A
JACKSON        CLOUDY    71  66  84 VRB3      30.17F
DYERSBURG      CLOUDY    72  55  56 SE5       30.17S
PARIS          SUNNY     73  64  73 VRB3      30.19S
LEXINGTON      CLOUDY    72  64  78 VRB3      30.18F
$$

TNZ008-025-027-028-033-062-065-066-281700-
NORTH MIDDLE TENNESSEE

CITY           SKY/WX    TMP DP  RH WIND       PRES   REMARKS
NASHVILLE      PTSUNNY   75  67  76 E6        30.22S
CLARKSVILLE    MOSUNNY   77  66  68 SE5       30.19F
COOKEVILLE     MOSUNNY   72  66  83 CALM      30.23S
CROSSVILLE     CLOUDY    69  62  78 SE3       30.29R
$$

TNZ061-075-076-078-094-096-097-281700-
SOUTH MIDDLE TENNESSEE

CITY           SKY/WX    TMP DP  RH WIND       PRES   REMARKS
FAYETTEVILLE   SUNNY    N/A N/A N/A MISG      30.22F
TULLAHOMA      SUNNY     73  63  68 CALM      30.24S
WINCHESTER     MOSUNNY   73  64  73 SE5       30.23F
MCMINNVILLE    SUNNY     77  66  69 SW6       30.23S
COLUMBIA       MOSUNNY   73  68  83 E5        30.20S
$$

TNZ017-018-042-046-047-281700-
NORTHEAST TENNESSEE

CITY           SKY/WX    TMP DP  RH WIND       PRES   REMARKS
TRI CITIES     MOSUNNY   79  63  57 VRB3      30.26S
ELIZABETHTON   PTSUNNY   79  64  61 N6        30.26S
$$

TNZ012-013-036-069-073-074-281700-
CENTRAL EAST TENNESSEE

CITY           SKY/WX    TMP DP  RH WIND       PRES   REMARKS
KNOXVILLE      CLOUDY    79  60  52 W7        30.22F
GATLINBURG       N/A     79  63  57 VRB5      30.23S
$$

TNZ083-085-099-281700-
SOUTHEAST TENNESSEE

CITY           SKY/WX    TMP DP  RH WIND       PRES   REMARKS
CHATTANOOGA    CLOUDY    72  65  78 SE5       30.25R
$$

SKY/WX REPORTED AS FAIR MEANS FEW OR NO CLOUDS BELOW
12 THOUSAND FEET.



USA.gov is the U.S. government's official web portal to all federal, state and local government web resources and services.